DELTA 1 DEB, 28266

Orbit data source: Space-Track

DELTA 1 DEB, 28266 is space debris in LEO originally from a launch on Thu, 04 Jul 1968 UTC launched from the Air Force Western Test Range (AFWTR). Debris objects in space refer to the collection of defunct objects orbiting the Earth. Examples of debris include non-operational satellites, rocket bodies, and fragments generated from explosions, collisions, or faulty payload assembly.

Loading next visibility...
Identifier
28266, 1968-055L
Orbit
LEO
Country
Flag of USUS
Related business
Manufacturer
Unknown
Mission
Spacecraft
Bus & Motor
Unknown
Mass
Unknown
Launch date (UTC)
1968-07-04 (58 years ago)
Launch vehicle
Unknown
Launch site
Air Force Western Test Range (AFWTR)
Object type
Payload
Rocket body
Debris
Shape & HBR
Unknown shape, 0.1 m
Radar Cross Section
Small (<0.1 m²)

Expand to show TLE details & history
Last TLE update: 2 months ago

TLE from 2 months ago
0 DELTA 1 DEB
1 28266U 68055L   26207.54032089  .00001754  00000-0  52719-2 0  9999
2 28266 120.7335  52.7403 1661159 165.9462 199.4062 10.85345747524916
Epoch: 2026-07-26T12:58Z
TLE epoch observation values (Epoch: 2026-07-26T12:58:03.724Z)
Latitude
-0.00003°
Longitude
-86.01198°
Altitude
3,611.399 km
Speed
5.794 km/s
True Right ascension
03h 30m 57s
True Declination
0° 00' 00"
Sunlit
Object was in daylight at epoch
Visualization orbit readout
Latitude
Unknown
Longitude
Unknown
Altitude
Unknown
Speed
Unknown
Apparent Right ascension
Unknown
Apparent Declination
Unknown
Sunlit
N/A
Visualization observer readout
Local Sidereal Time
15:06:55
Azimuth
Unknown
Elevation
Unknown
Doppler factor
Unknown
Orbital elements
Apogee altitude
3,669.625 km
Perigee altitude
806.971 km
Semi-major axis
8,616.435 km
Eccentricity
0.16612
Inclination
120.7335°
RAAN
52.7403°
Arg. of periapsis
165.9462°
True anomaly
194.12939°
Mean anomaly
199.4062°
Eccentric anomaly
196.67513°
Mean motion
2.71364 °/min
Orbital period
132.66 mins
BSTAR
0.0052719
Loading maneuver chart data...
Computing Atmospheric mass density...
Loading historical data...
Loading historical data...
Loading historical data...
Loading historical data...
Loading historical data...
Loading historical data...
Loading historical data...

Documentation

Showing up to 5 results
|